User: anonymous   Login
Location: Songkhla
(7.2000°N, 100.6000°E)
Time: 00:35:40
(UTC+07:00)
Language:

Milstar 3 - Orbit

View from above orbital plane
View from above orbital plane
View from above satellite
View from above satellite

Ground track
Ground track

The orbit is defined by the following mean orbital elements,

1 25724U          26156.26692964 +.00000000 +00000-0 +10584-2 0 00007
2 25724  28.2290  12.0435 2131834 171.1830 193.3163  9.37511951    00
Epoch (UTC): 05 June 2026 06:24:22
Eccentricity: 0.2131834
inclination: 28.2290°
perigee height: 1097 km
apogee height: 5148 km
right ascension of ascending node: 12.0435°
argument of perigee: 171.1830°
revolutions per day: 9.37511951
mean anomaly at epoch: 193.3163°

The dashed part of the orbit path shows where the satellite is in the earth's shadow,  

DLR